Location: Crescent
(42.8242°N, 73.7329°W)
Time: 07:56:51
(UTC+00:00)

Vanguard 1 Rocket - Pass Details

Date: 24 February 2026
Orbit: 653 x 4214 km, 34.3° (Epoch: 12 March)

Event Time Altitude Azimuth Distance (km) Brightness Sun altitude
Rises 21:14:29 0° 273° (W) 4,976 12.3 13.6°
Reaches altitude 10° 21:17:18 10° 267° (W) 4,346 12.4 13.2°
Maximum altitude 21:29:22 47° 199° (SSW) 3,552 11.0 11.2°
Drops below altitude 10° 21:50:16 10° 135° (SE) 7,191 11.7 7.6°
Sets 21:56:47 0° 131° (SE) 8,406 12.0 6.5°
